VEGTVNKT

Guest
Details From VEGT - Guwahati Intl
To VNKT - Kathmandu Tribhuvan Intl
Flight Number -
Tags Generated
Created
Modified
Stats Distance 347 nm / 642 km
Max Altitude 0 ft / 0 m
Waypoints 3
Social Downloads 1
Likes 0
Share VATSIM

Download

Looking for another format? Having issues loading an existing format? Contact us
Advertisement - Login to hide

Notes

Generated

Route

VEGT LNC14 VNKT

ID Type Via Altitude Latitude Longitude Leg Dist Tot Dist Heading (true) Name
O VEGT APT - 0 ft / 0 m 26.09467˚ 91.58063˚ - 0 nm - -
LNC14 FIX - 0 ft / 0 m 27.60500˚ 85.71667˚ 326 nm 326 nm 287° / 285° -
O VNKT APT - 0 ft / 0 m 27.68381˚ 85.35342˚ 19 nm 346 nm 284° / 284° -

Altitude Profile

Advertisement - Login to hide

Weather


0- 5 10 15 20 25 30 35+ Temperature / ° C

Clouds and Precipitation
Forecast for 2018-05-27 12:00 UTC. Updated an hour ago

Ground ~20,000 ft ~40,000 ft Winds

VEGT

Details ICAO VEGT (GAU)
Name GUWAHATI INTL
Region India
Timezone Asia/Kolkata (UTC+5.5)
Stats Elevation 162 ft / 49 m (AMSL)
Location 26.106091° 91.585940°
Runways 1
Magnetic Variation 0.143° W

METAR

VEGT 271200Z 01003KT 5000 HZ FEW018 SCT100 31/26 Q1002 NOSIG

Decode

TAF

Not found

Departure Runways

ID Width Length Bearing (true) Bearing (mag) Surface Threshold Offset Overrun Length
02 150 ft / 46 m 9,028 ft / 2,752 m 22.66° 22.80° Asphalt 0 ft / 0 m 0 ft / 0 m
20 150 ft / 46 m 9,028 ft / 2,752 m 202.66° 202.80° Asphalt 0 ft / 0 m 0 ft / 0 m

VNKT

Details ICAO VNKT (KTM)
Name Kathmandu Tribhuvan Intl
Region Nepal
Timezone Asia/Kathmandu (UTC+5.8)
Stats Elevation 4,390 ft / 1,338 m (AMSL)
Location 27.696583° 85.359100°
Runways 1
Magnetic Variation 0.514° E

METAR

VNKT 271220Z 29010KT 6000 FEW020 SCT250 27/18 Q1009 NOSIG

Decode

TAF

TAF VNKT 271100Z 2712/2812 30007KT 6000 FEW020 SCT030 PROB40 2712/2718 28010KT 4000 -TSRA FEW025CB BKN100 BECMG 2714/2715 20003KT 5000 BR FEW015 SCT100 BECMG 2800/2802 VRB02KT 3000 BR FEW010 SCT100 PROB40 2801/2803 2000 BR BECMG 2804/2805 13004KT 6000 FEW015 SCT030 BECMG 2807/2808 28010KT 7000 FEW020 SCT030 BKN100 PROB40 2808/2812 30012KT 4000 -TSRA FEW025CB

Decode

Destination Runways

ID Width Length Bearing (true) Bearing (mag) Surface Threshold Offset Overrun Length
02 148 ft / 45 m 10,017 ft / 3,053 m 21.50° 20.99° Asphalt 0 ft / 0 m 0 ft / 0 m
20 148 ft / 45 m 10,017 ft / 3,053 m 201.51° 201.00° Asphalt 400 ft / 122 m 0 ft / 0 m

Popular Alternatives